Location: Moreno
(33.9175°N, 117.1578°W)
Time: 05:39:24
(UTC+00:00)

CBERS-1 - Pass Details

Date: 18 April 2024
Orbit: 766 x 775 km, 98.8° (Epoch: 28 May)

Event Time Altitude Azimuth Distance (km) Brightness Sun altitude
Rises 12:05:42 0° 13° (NNE) 3,244 7.8 -14.1°
Reaches altitude 10° 12:08:00 10° 14° (NNE) 2,312 7.0 -13.7°
Maximum altitude 12:13:07 87° 103° (ESE) 773 4.0 -12.7°
Drops below altitude 10° 12:18:11 10° 193° (SSW) 2,296 6.1 -11.7°
Sets 12:20:28 0° 194° (SSW) 3,218 6.9 -11.3°
